Weather in Snigirevka

Ukraine / Mykolaiv District     47°04′14″N   32°47′59″E
temp.,
°C
wind,
m/s
gust,
m/s
humid.,
%
clouds,
%
prec.,
mm/h
press.,
hPa
HPBL,
m
21 april, wed
wed2100:00+8w4781100 0.0 1010131
03:00+7w3683100 0.0 1011116
06:00+6w358699 0.0 101372
09:00+11w356664 0.0 1014377
12:00+15sw574669 0.0 10152074
15:00+16sw77455 0.0 10151888
18:00+14wsw66565 0.0 1016978
21:00+9sw48815 0.0 1018149
22 april, thu
thu2200:00+8ssw36905 0.0 1018104
03:00+7sw34935 0.0 101959
06:00+7s349217 0.0 102048
09:00+12ssw34685 0.0 1021440
12:00+16ssw44515 0.2 10201503
15:00+18sw664579 1.3 10202315
18:00+16sw66550 0.0 10201314
21:00+10ssw48770 0.0 1021179
23 april, fri
fri2300:00+9s410881 0.0 1020243
03:00+8s410925 0.0 1019232
06:00+9s51286100 0.0 1019280
09:00+12s7127099 0.0 1019577
12:00+16ssw81051100 0.0 10181200
15:00+17ssw8104545 0.0 10161527
18:00+14sw61061100 0.0 1016987
21:00+11sw51078100 0.1 1016616
24 april, sat
sat2400:00+8nw4786100 0.4 1017482
03:00+6nw47890 0.4 1018316
06:00+4wnw36920 0.0 1019144
09:00+9w46630 0.0 1019650
12:00+12w694252 0.0 10191921
15:00+12w795068 0.3 10191863
18:00+12wnw69415 0.0 10192342
21:00+7wnw36584 0.0 1021106
25 april, sun
sun2500:00+5wnw37595 0.0 1021121
03:00+4nw3572100 0.0 102178
06:00+3nw337497 0.0 102146
09:00+8wnw225251 0.0 1021501
12:00+11w3335100 0.0 10211467
15:00+13w3431100 0.0 10192106
18:00+13sw43377 0.0 10181730
21:00+7wsw476795 0.0 1019130